Alpha, California Weather observations
Data are for observation ending at time listed.
Day Time Ave. Ave. Ave. Vector Max. Stn. Total Solar Ave. Snow
of of Air Rel. Wind Wind Wind Baro. Precip. Rad. Soil Depth
Year Day Temp. Hum. Speed Dir. Gust Pres. Temp.
2026 (PST) F % mph deg. mph mb. in. W/m2 F in.
---------------------------------------------------------------------------------------
129 0:00 53.3 30 4.3 112 6.9 788.9 0.00 0 999.0 999.0
129 0:10 53.3 30 4.3 106 7.4 789.0 0.00 0 999.0 999.0
129 0:20 53.7 28 5.0 105 9.3 788.9 0.00 0 999.0 999.0
129 0:30 53.8 28 5.3 118 8.3 788.9 0.00 0 999.0 999.0
129 0:40 53.9 27 5.5 116 8.1 788.8 0.00 0 999.0 999.0
129 0:50 54.0 27 5.4 129 10.7 788.7 0.00 0 999.0 999.0
129 1:00 54.0 27 4.5 118 7.6 788.7 0.00 0 999.0 999.0
129 1:10 53.5 28 5.0 108 8.8 788.7 0.00 0 999.0 999.0
129 1:20 53.2 29 5.1 106 9.6 788.6 0.00 0 999.0 999.0
129 1:30 52.8 31 4.4 94 8.3 788.6 0.00 0 999.0 999.0
129 1:40 52.1 32 3.7 76 6.3 788.5 0.00 0 999.0 999.0
129 1:50 52.3 34 4.2 77 11.9 788.4 0.00 0 999.0 999.0
129 2:00 52.4 34 4.8 86 9.1 788.4 0.00 0 999.0 999.0
129 2:10 52.4 34 4.6 93 8.3 788.3 0.00 0 999.0 999.0
129 2:20 52.0 35 5.0 92 9.9 788.3 0.00 0 999.0 999.0
129 2:30 51.9 36 5.2 84 9.6 788.2 0.00 0 999.0 999.0
129 2:40 51.7 37 5.3 84 8.9 788.2 0.00 0 999.0 999.0
129 2:50 51.7 37 6.2 83 10.4 788.2 0.00 0 999.0 999.0
129 3:00 51.8 37 6.8 86 12.2 788.1 0.00 0 999.0 999.0
129 3:10 51.8 37 7.2 91 15.0 788.0 0.00 0 999.0 999.0
129 3:20 51.6 37 6.7 95 11.1 788.0 0.00 0 999.0 999.0
129 3:30 51.8 37 7.3 93 12.6 788.0 0.00 0 999.0 999.0
129 3:40 51.7 37 7.6 92 15.4 788.1 0.00 0 999.0 999.0
129 3:50 51.8 37 7.7 91 14.0 788.1 0.00 0 999.0 999.0
129 4:00 51.8 37 7.7 90 14.8 788.1 0.00 0 999.0 999.0
129 4:10 51.4 38 7.5 88 12.1 788.1 0.00 0 999.0 999.0
129 4:20 51.2 39 7.5 86 13.8 788.1 0.00 0 999.0 999.0
129 4:30 51.3 38 7.6 83 12.7 788.1 0.00 0 999.0 999.0
129 4:40 50.9 39 7.3 87 12.7 788.0 0.00 0 999.0 999.0
129 4:50 50.9 39 7.6 84 13.1 788.0 0.00 1 999.0 999.0
129 5:00 50.7 39 7.9 88 13.9 788.0 0.00 2 999.0 999.0
129 5:10 50.9 37 8.0 91 14.6 788.0 0.00 4 999.0 999.0
129 5:20 51.1 36 7.7 83 13.2 788.1 0.00 7 999.0 999.0
129 5:30 51.6 34 8.0 80 13.9 788.2 0.00 20 999.0 999.0
129 5:40 52.1 33 8.1 81 12.3 788.3 0.00 22 999.0 999.0
129 5:50 52.3 32 7.7 82 12.5 788.3 0.00 15 999.0 999.0
129 6:00 52.3 31 8.1 86 14.1 788.4 0.00 18 999.0 999.0
129 6:10 52.5 31 8.1 93 14.0 788.4 0.00 21 999.0 999.0
129 6:20 52.8 30 8.2 89 14.1 788.4 0.00 16 999.0 999.0
129 6:30 53.3 29 8.8 89 17.9 788.4 0.00 29 999.0 999.0
129 6:40 53.2 30 8.6 89 14.5 788.5 0.00 36 999.0 999.0
129 6:50 53.5 29 8.7 91 17.3 788.6 0.00 85 999.0 999.0
129 7:00 53.9 29 8.8 87 17.6 788.7 0.00 174 999.0 999.0
129 7:10 54.4 29 7.8 89 13.4 788.7 0.00 194 999.0 999.0
129 7:20 54.8 29 7.8 87 14.4 788.7 0.00 213 999.0 999.0
129 7:30 55.0 28 8.3 93 15.6 788.7 0.00 232 999.0 999.0
129 7:40 55.5 29 7.9 95 17.8 788.8 0.00 251 999.0 999.0
129 7:50 55.5 29 7.3 88 15.1 788.9 0.00 269 999.0 999.0
129 8:00 55.7 29 7.9 89 14.0 788.9 0.00 287 999.0 999.0
129 8:10 56.2 29 7.2 94 12.2 788.8 0.00 305 999.0 999.0
129 8:20 56.9 28 7.1 99 13.0 788.9 0.00 322 999.0 999.0
129 8:30 57.2 28 7.7 99 12.6 788.9 0.00 339 999.0 999.0
129 8:40 57.4 27 7.8 94 16.4 788.9 0.00 355 999.0 999.0
129 8:50 58.0 27 6.6 103 13.7 788.9 0.00 370 999.0 999.0
129 9:00 58.5 26 6.8 91 11.8 789.0 0.00 385 999.0 999.0
129 9:10 59.0 26 5.3 83 10.5 789.1 0.00 398 999.0 999.0
129 9:20 59.7 26 6.7 109 14.3 789.1 0.00 411 999.0 999.0
129 9:30 60.0 25 6.4 110 11.0 789.2 0.00 423 999.0 999.0
129 9:40 60.1 26 5.9 88 11.9 789.2 0.00 435 999.0 999.0
129 9:50 60.6 26 5.8 98 13.2 789.3 0.00 447 999.0 999.0
129 10:00 60.7 26 6.2 99 12.9 789.3 0.00 457 999.0 999.0
129 10:10 61.6 26 5.8 112 10.7 789.3 0.00 467 999.0 999.0
129 10:20 61.6 26 5.4 107 10.0 789.3 0.00 475 999.0 999.0
129 10:30 61.7 25 6.2 128 10.7 789.4 0.00 483 999.0 999.0
129 10:40 62.6 23 5.8 136 11.4 789.4 0.00 492 999.0 999.0
129 10:50 62.3 22 5.9 146 11.8 789.4 0.00 497 999.0 999.0
129 11:00 62.4 22 5.8 138 13.1 789.3 0.00 505 999.0 999.0
129 11:10 62.9 22 5.5 133 13.2 789.3 0.00 508 999.0 999.0
129 11:20 63.2 20 4.3 130 9.9 789.3 0.00 513 999.0 999.0
129 11:30 63.3 20 3.6 140 7.9 789.3 0.00 514 999.0 999.0
129 11:40 64.3 23 3.9 156 9.2 789.2 0.00 515 999.0 999.0
129 11:50 65.0 22 3.8 171 9.7 789.3 0.00 516 999.0 999.0
129 12:00 64.1 22 5.3 132 11.1 789.2 0.00 516 999.0 999.0
129 12:10 63.8 23 4.2 163 8.9 789.1 0.00 514 999.0 999.0
129 12:20 64.8 22 4.2 145 8.6 789.0 0.00 512 999.0 999.0
129 12:30 65.3 21 4.5 161 9.5 788.9 0.00 509 999.0 999.0
129 12:40 65.1 20 4.5 173 8.8 789.0 0.00 506 999.0 999.0
129 12:50 999.0 999 999.0 999 999.0 999.0 999.00 999 999.0 999.0
129 13:00 999.0 999 999.0 999 999.0 999.0 999.00 999 999.0 999.0
129 13:10 999.0 999 999.0 999 999.0 999.0 999.00 999 999.0 999.0
129 13:20 999.0 999 999.0 999 999.0 999.0 999.00 999 999.0 999.0
129 13:30 999.0 999 999.0 999 999.0 999.0 999.00 999 999.0 999.0
129 13:40 999.0 999 999.0 999 999.0 999.0 999.00 999 999.0 999.0
129 13:50 66.9 34 2.9 211 6.7 788.7 0.00 466 999.0 999.0
129 14:00 66.2 38 2.8 331 7.7 788.7 0.00 460 999.0 999.0
129 14:10 65.3 42 3.1 268 9.9 788.7 0.00 449 999.0 999.0
129 14:20 65.2 44 2.9 265 11.5 788.6 0.00 412 999.0 999.0
129 14:30 66.0 45 3.4 273 8.3 788.5 0.00 425 999.0 999.0
129 14:40 65.8 41 3.0 315 7.3 788.4 0.00 402 999.0 999.0
129 14:50 65.4 43 3.0 294 7.5 788.3 0.00 376 999.0 999.0
129 15:00 65.6 46 2.1 323 7.0 788.2 0.00 356 999.0 999.0
129 15:10 64.9 44 3.8 302 9.5 788.2 0.00 289 999.0 999.0
129 15:20 64.0 50 4.1 289 8.3 788.2 0.00 187 999.0 999.0
129 15:30 63.8 50 4.8 292 12.3 788.2 0.00 228 999.0 999.0
129 15:40 64.2 50 3.9 302 9.6 788.2 0.00 186 999.0 999.0
129 15:50 64.5 50 3.5 313 10.2 788.2 0.00 185 999.0 999.0
129 16:00 64.4 49 3.0 321 8.6 788.2 0.00 24 999.0 999.0
129 16:10 64.1 48 3.6 329 8.8 788.2 0.00 121 999.0 999.0
129 16:20 64.5 48 2.5 328 6.6 788.2 0.00 157 999.0 999.0
129 16:30 64.5 46 3.5 322 7.4 788.2 0.00 208 999.0 999.0
129 16:40 64.2 47 3.0 328 8.5 788.2 0.00 189 999.0 999.0
129 16:50 64.2 47 2.7 330 6.1 788.2 0.00 171 999.0 999.0
129 17:00 64.0 48 2.2 337 8.4 788.2 0.00 149 999.0 999.0
129 17:10 63.1 50 3.1 321 6.6 788.2 0.00 131 999.0 999.0
129 17:20 63.3 50 1.9 336 4.2 788.1 0.00 115 999.0 999.0
129 17:30 63.3 50 1.9 331 4.2 788.1 0.00 98 999.0 999.0
129 17:40 63.0 51 2.0 342 3.2 788.1 0.00 83 999.0 999.0
129 17:50 62.1 52 2.5 329 6.6 788.2 0.00 65 999.0 999.0
129 18:00 61.2 54 3.1 330 7.3 788.2 0.00 51 999.0 999.0
129 18:10 60.5 56 2.6 340 6.6 788.2 0.00 43 999.0 999.0
129 18:20 59.5 58 2.1 343 4.4 788.2 0.00 22 999.0 999.0
129 18:30 58.9 60 1.9 352 4.0 788.2 0.00 11 999.0 999.0
129 18:40 58.4 61 2.1 340 4.4 788.2 0.00 9 999.0 999.0
129 18:50 57.7 63 1.3 349 2.6 788.2 0.00 6 999.0 999.0
129 19:00 57.1 64 0.7 12 2.0 788.3 0.00 3 999.0 999.0
129 19:10 56.4 66 1.0 354 2.1 788.3 0.00 1 999.0 999.0
129 19:20 55.7 68 1.2 355 2.2 788.5 0.00 0 999.0 999.0
129 19:30 55.1 69 1.0 0 1.9 788.5 0.00 0 999.0 999.0
129 19:40 55.0 65 1.5 42 3.5 788.6 0.00 0 999.0 999.0
129 19:50 56.3 54 2.4 95 3.9 788.7 0.00 0 999.0 999.0
129 20:00 56.7 48 3.3 104 5.8 788.8 0.00 0 999.0 999.0
129 20:10 56.6 43 3.0 89 5.2 788.8 0.00 0 999.0 999.0
129 20:20 57.0 28 4.3 79 6.2 788.7 0.00 0 999.0 999.0
129 20:30 57.5 21 4.7 73 7.8 788.7 0.00 0 999.0 999.0
129 20:40 58.8 18 5.9 64 9.1 788.7 0.00 0 999.0 999.0
129 20:50 59.3 18 6.1 64 11.2 788.7 0.00 0 999.0 999.0
129 21:00 59.6 17 5.3 67 9.9 788.7 0.00 0 999.0 999.0
129 21:10 59.2 18 5.6 68 10.2 788.7 0.00 0 999.0 999.0
129 21:20 59.1 17 5.8 71 9.1 788.7 0.00 0 999.0 999.0
129 21:30 59.1 17 5.4 70 8.8 788.7 0.00 0 999.0 999.0
129 21:40 59.1 16 5.3 68 9.1 788.7 0.00 0 999.0 999.0
129 21:50 59.2 16 5.5 66 10.7 788.8 0.00 0 999.0 999.0
129 22:00 59.6 16 5.7 71 9.5 788.8 0.00 0 999.0 999.0
129 22:10 59.5 16 5.5 75 9.1 788.8 0.00 0 999.0 999.0
129 22:20 59.2 16 4.8 89 7.6 788.8 0.00 0 999.0 999.0
129 22:30 58.5 17 4.3 94 7.2 788.8 0.00 0 999.0 999.0
129 22:40 57.9 18 4.6 85 7.7 788.8 0.00 0 999.0 999.0
129 22:50 58.1 17 5.2 81 8.0 788.9 0.00 0 999.0 999.0
129 23:00 58.4 17 5.8 81 9.6 788.9 0.00 0 999.0 999.0
129 23:10 58.2 17 6.0 76 9.7 788.9 0.00 0 999.0 999.0
129 23:20 58.0 18 6.3 75 10.7 788.8 0.00 0 999.0 999.0
129 23:30 58.5 17 6.5 75 10.7 788.8 0.00 0 999.0 999.0
129 23:40 58.5 17 6.1 79 11.2 788.7 0.00 0 999.0 999.0
Return to Alpha graphs page.
Western Regional Climate Center,wrcc@dri.edu